This is the latest recevied weather packets stored in our database for station/object GCEMA. If no packets are shown the sender has not sent any weather packets the latest 10 day(s).
| Time | Temp. | Humidity | Pressure | Rain* | Wind** | Luminosity | Snow |
|---|---|---|---|---|---|---|---|
| 1777471781 | 16.11° C | - | 1009.6 hPa | 0 mm | 0 m/s | - | - |
| 1777471601 | 16.67° C | - | 1009.6 hPa | 0 mm | 0 m/s | - | - |
| 1777471422 | 16.11° C | - | 1009.6 hPa | 0 mm | 0 m/s | - | - |
| 1777471242 | 16.11° C | - | 1009.6 hPa | 0 mm | 0 m/s | - | - |
| 1777471063 | 16.67° C | - | 1009.6 hPa | 0 mm | 0 m/s | - | - |
| 1777470879 | 17.22° C | - | 1009.6 hPa | 0 mm | 0 m/s | - | - |
| 1777470700 | 16.11° C | - | 1009.7 hPa | 0 mm | 0 m/s | - | - |
| 1777470520 | 17.78° C | - | 1009.7 hPa | 0 mm | 0 m/s | - | - |
| 1777470341 | 17.22° C | - | 1009.7 hPa | 0 mm | 0 m/s | - | - |
| 1777470161 | 16.67° C | - | 1009.8 hPa | 0 mm | 0 m/s | - | - |
| 1777469979 | 16.67° C | - | 1009.8 hPa | 0 mm | 0 m/s | - | - |
| 1777469799 | 16.11° C | - | 1009.8 hPa | 0 mm | 0 m/s | - | - |
| 1777469620 | 16.11° C | - | 1009.8 hPa | 0 mm | 0 m/s | - | - |
| 1777469440 | 16.11° C | - | 1009.7 hPa | 0 mm | 0 m/s | - | - |
| 1777469261 | 16.11° C | - | 1009.8 hPa | 0 mm | 0 m/s | - | - |
| 1777469078 | 15° C | - | 1009.8 hPa | 0 mm | 0 m/s | - | - |
| 1777468899 | 14.44° C | - | 1009.6 hPa | 0 mm | 0 m/s | - | - |
| 1777468719 | 15° C | - | 1009.6 hPa | 0 mm | 0 m/s | - | - |
| 1777468539 | 15.56° C | - | 1009.6 hPa | 0 mm | 0 m/s | - | - |
| 1777468359 | 16.11° C | - | 1009.7 hPa | 0 mm | 0 m/s | - | - |
| 1777468176 | 15.56° C | - | 1009.7 hPa | 0 mm | 0 m/s | - | - |
| 1777467817 | 16.67° C | - | 1009.6 hPa | 0 mm | 0 m/s | - | - |
| 1777467638 | 16.11° C | - | 1009.7 hPa | 0 mm | 0 m/s | - | - |
| 1777467458 | 16.67° C | - | 1009.7 hPa | 0 mm | 0 m/s | - | - |
| 1777467275 | 16.67° C | - | 1009.6 hPa | 0 mm | 0 m/s | - | - |
* Rain latest hour (hover to see other rain measurements)
** Current wind speed in m/s (hover to see current wind gust speed)